Regional Weather Roundup
Issued by NWS

Home | Current Version | Previous Version | Text Only | Print | Product List | Glossary On
Versions: 1 2 3 4 5 6 7 8 9 10 11 12 13 14 15 16 17 18 19 20 21 22 23 24 25 26 27 28 29 30 31 32 33 34 35 36 37 38 39 40 41 42 43 44 45 46 47 48 49 50
000
ASUS44 KOUN 220110
RWROK

WEATHER ROUNDUP FOR OKLAHOMA
NATIONAL WEATHER SERVICE NORMAN OK
700 PM CST TUE FEB 21 2017

NOTE: "FAIR" INDICATES FEW OR NO CLOUDS BELOW 12,000 FEET WITH NO
      SIGNIFICANT WEATHER AND/OR OBSTRUCTIONS TO VISIBILITY.

OKZ001>007-009>012-014-015-017-220200-
NORTHWEST OKLAHOMA AND THE PANHANDLE

CITY           SKY/WX    TMP DP  RH WIND       PRES   REMARKS
GAGE           CLEAR     55  27  34 S9        29.94R
GUYMON         CLEAR     69  21  16 SE3       29.96R
ENID/WOODRING  CLEAR     59  41  51 CALM      29.94R
$$

OKZ016-021>023-033>039-044-045-220200-
SOUTHWEST OKLAHOMA

CITY           SKY/WX    TMP DP  RH WIND       PRES   REMARKS
LAWTON/REGL    CLEAR     61  41  47 CALM      29.95S
LAWTON/FT SILL CLEAR     66  38  36 NE3       29.94S
FREDERICK      CLEAR     62  47  57 S7        29.93R
CLINTON        CLEAR     58  38  47 SE9       29.97R
HOBART         CLEAR     60  47  61 SE10      29.97R
ALTUS AFB      CLEAR     61  47  58 SE6       29.95R
$$

OKZ018>020-024>031-220200-
CENTRAL OKLAHOMA

CITY           SKY/WX    TMP DP  RH WIND       PRES   REMARKS
OKLAHOMA CITY  PTCLDY    58  35  42 W3        29.95R
OKC/WILEY POST CLEAR     60  38  43 W5        29.96R
OKC/TINKER AFB CLEAR     62  35  37 NW5       29.94R
STILLWATER     CLEAR     57  38  48 NW5       29.93R
GUTHRIE        CLEAR     61  37  41 NW5       29.94R
$$

OKZ008-013-054>072-220200-
NORTHEAST OKLAHOMA

CITY           SKY/WX    TMP DP  RH WIND       PRES   REMARKS
TULSA          CLEAR     65  46  50 N5        29.89R
TULSA/JONES    CLEAR     58  46  64 CALM      29.91R
PONCA CITY     CLEAR     61  38  42 CALM      29.92S
BARTLESVILLE   CLEAR     52  45  77 CALM      29.92R
MUSKOGEE       CLEAR     63  49  60 N5        29.91R
$$

OKZ032-040>043-046>053-073>077-220200-
SOUTH CENTRAL/SOUTHEAST OKLAHOMA

CITY           SKY/WX    TMP DP  RH WIND       PRES   REMARKS
ARDMORE/DWNTWN CLEAR     64  37  36 CALM      29.93R
MCALESTER      PTCLDY    61  48  62 E3        29.91R
$$





USA.gov is the U.S. government's official web portal to all federal, state and local government web resources and services.